| time (UTC) | temp F | wind direction | speed MPH | gust MPH | rain 1hr in | rain 24hr in | rain mn in | humidity % | barometer mb |
| 20260504191547 | 76 | 176 | 3.0 | 14.0 | 0.00 | 0.00 | 0.00 | 54 | 1012.1 |
| 20260504190058 | 76 | 123 | 6.0 | 27.0 | 0.00 | 0.00 | 0.00 | 51 | 1012.2 |
| 20260504184543 | 76 | 200 | 5.0 | 13.0 | 0.00 | 0.00 | 0.00 | 53 | 1012.4 |
| 20260504183048 | 76 | 182 | 6.0 | 13.0 | 0.00 | 0.00 | 0.00 | 53 | 1012.5 |
| 20260504181545 | 76 | 183 | 4.0 | 17.0 | 0.00 | 0.00 | 0.00 | 53 | 1012.7 |
| 20260504180049 | 75 | 105 | 4.0 | 13.0 | 0.00 | 0.00 | 0.00 | 53 | 1012.8 |
| 20260504174544 | 75 | 66 | 3.0 | 10.0 | 0.00 | 0.00 | 0.00 | 55 | 1012.9 |
| 20260504173050 | 74 | 179 | 3.0 | 15.0 | 0.00 | 0.00 | 0.00 | 54 | 1013.5 |
| 20260504171547 | 74 | 165 | 3.0 | 12.0 | 0.00 | 0.00 | 0.00 | 55 | 1013.5 |
| 20260504090119 | 53 | 0 | 0.0 | 0.0 | 0.00 | 0.00 | 0.00 | 90 | 1014.4 |
| 20260504081548 | 54 | 0 | 0.0 | 0.0 | 0.00 | 0.00 | 0.00 | 89 | 1014.4 |
| 20260504050106 | 59 | 0 | 0.0 | 1.0 | 0.00 | 0.00 | 0.00 | 82 | 1015.4 |
| 20260504044558 | 59 | 0 | 0.0 | 1.0 | 0.00 | 0.00 | 0.00 | 83 | 1015.4 |
| 20260504043049 | 59 | 0 | 0.0 | 0.0 | 0.00 | 0.00 | 0.00 | 82 | 1015.4 |
| 20260504041549 | 60 | 0 | 0.0 | 0.0 | 0.00 | 0.00 | 0.00 | 81 | 1015.5 |
| 20260504040103 | 60 | 0 | 0.0 | 0.0 | 0.00 | 0.00 | 0.00 | 81 | 1015.7 |
| 20260504034554 | 60 | 0 | 0.0 | 0.0 | 0.00 | 0.00 | 0.00 | 80 | 1015.8 |
| 20260504033056 | 60 | 0 | 0.0 | 0.0 | 0.00 | 0.00 | 0.00 | 79 | 1015.9 |
| 20260504031549 | 61 | 0 | 0.0 | 1.0 | 0.00 | 0.00 | 0.00 | 79 | 1015.8 |
| 20260504030050 | 61 | 0 | 0.0 | 0.0 | 0.00 | 0.00 | 0.00 | 79 | 1015.9 |
| 20260504024551 | 62 | 0 | 0.0 | 0.0 | 0.00 | 0.00 | 0.00 | 77 | 1015.9 |
| 20260504023047 | 63 | 0 | 0.0 | 0.0 | 0.00 | 0.00 | 0.00 | 76 | 1015.6 |
| 20260504021544 | 63 | 0 | 0.0 | 0.0 | 0.00 | 0.00 | 0.00 | 74 | 1015.5 |
| 20260504020051 | 65 | 0 | 0.0 | 0.0 | 0.00 | 0.00 | 0.00 | 72 | 1015.3 |
| 20260504014555 | 66 | 0 | 0.0 | 0.0 | 0.00 | 0.00 | 0.00 | 70 | 1015.3 |
| 20260504013051 | 67 | 0 | 0.0 | 0.0 | 0.00 | 0.00 | 0.00 | 68 | 1015.2 |
| 20260504011548 | 69 | 0 | 0.0 | 0.0 | 0.00 | 0.00 | 0.00 | 65 | 1015.2 |
| 20260504010056 | 70 | 0 | 0.0 | 1.0 | 0.00 | 0.00 | 0.00 | 61 | 1015.1 |
| 20260504004542 | 72 | 0 | 0.0 | 1.0 | 0.00 | 0.00 | 0.00 | 59 | 1015.0 |
| 20260504003051 | 73 | 0 | 0.0 | 1.0 | 0.00 | 0.00 | 0.00 | 56 | 1015.1 |
| 20260504001606 | 75 | 0 | 0.0 | 4.0 | 0.00 | 0.00 | 0.00 | 53 | 1015.0 |
| 20260504000049 | 76 | 128 | 0.0 | 5.0 | 0.00 | 0.00 | 0.00 | 51 | 1015.2 |
| 20260503234545 | 76 | 166 | 0.0 | 4.0 | 0.00 | 0.00 | 0.00 | 50 | 1015.4 |
| 20260503233050 | 77 | 0 | 1.0 | 8.0 | 0.00 | 0.00 | 0.00 | 48 | 1015.4 |
| 20260503231549 | 78 | 224 | 2.0 | 7.0 | 0.00 | 0.00 | 0.00 | 47 | 1015.4 |
| 20260503230051 | 78 | 174 | 1.0 | 7.0 | 0.00 | 0.00 | 0.00 | 46 | 1015.4 |
| 20260503224551 | 79 | 176 | 1.0 | 10.0 | 0.00 | 0.00 | 0.00 | 45 | 1015.5 |
| 20260503223052 | 79 | 155 | 3.0 | 11.0 | 0.00 | 0.00 | 0.00 | 44 | 1015.6 |
| 20260503221551 | 79 | 170 | 2.0 | 7.0 | 0.00 | 0.00 | 0.00 | 45 | 1015.8 |
| 20260503220106 | 79 | 120 | 2.0 | 10.0 | 0.00 | 0.00 | 0.00 | 43 | 1015.9 |
| 20260503214552 | 79 | 181 | 3.0 | 9.0 | 0.00 | 0.00 | 0.00 | 43 | 1016.0 |
| 20260503213052 | 78 | 0 | 3.0 | 9.0 | 0.00 | 0.00 | 0.00 | 47 | 1016.2 |
| 20260503211604 | 78 | 236 | 3.0 | 10.0 | 0.00 | 0.00 | 0.00 | 45 | 1016.5 |
| 20260503210054 | 77 | 107 | 2.0 | 10.0 | 0.00 | 0.00 | 0.00 | 46 | 1016.7 |
| 20260503204553 | 77 | 159 | 2.0 | 8.0 | 0.00 | 0.00 | 0.00 | 46 | 1017.0 |
| 20260503203051 | 77 | 263 | 5.0 | 13.0 | 0.00 | 0.00 | 0.00 | 45 | 1017.5 |
| 20260503201550 | 77 | 145 | 1.0 | 7.0 | 0.00 | 0.00 | 0.00 | 49 | 1017.8 |
| 20260503200049 | 76 | 227 | 2.0 | 7.0 | 0.00 | 0.00 | 0.00 | 46 | 1018.0 |
| 20260503194550 | 76 | 130 | 2.0 | 10.0 | 0.00 | 0.00 | 0.00 | 47 | 1018.4 |
| 20260503193054 | 76 | 154 | 2.0 | 9.0 | 0.00 | 0.00 | 0.00 | 50 | 1018.6 |